Temp_Advection
nan nan nan nan nan nan nan nan nan nan nan nan nan nan nan nan nan nan nan nan nan nan nan nan nan nan nan
nan 0 0 -0 -1 -1 -0 0 1 0 -0 -0 0 -0 -0 -0 -0 -0 -1 -1 -0 -0 -0 -0 -0 -0 nan
nan 0 -0 -0 0 -0 -1 -1 0 0 -0 0 0 -0 0 -0 -0 -0 -0 -1 -1 -0 -0 -0 -0 -0 nan
nan 1 0 0 0 0 -0 -1 -1 -1 0 1 0 -0 -0 0 -0 -0 -0 -0 -1 -1 -0 -0 -0 -0 nan
nan -0 0 0 0 0 -0 -1 -1 -1 -1 1 0 -1 -0 0 0 -0 -0 -1 -0 -1 -1 -0 -0 -0 nan
nan -1 -0 0 0 0 -0 -0 -1 -1 -1 -1 0 -0 0 0 0 0 0 -0 -0 -0 -0 -1 -0 -0 nan
nan -0 -0 1 1 0 -0 -1 -0 0 -1 -2 -0 -0 0 -0 -0 0 0 1 1 0 -0 -1 -1 -0 nan
nan 0 0 1 1 1 -0 -1 -1 -0 1 -2 -1 -0 -0 0 -0 -0 0 1 1 0 -1 -1 -0 -0 nan
nan 0 0 1 1 1 0 -0 -1 -1 0 -1 -2 -1 -1 -1 -0 -0 1 1 1 0 -0 -1 -1 -0 nan
nan -0 -1 0 1 0 0 1 1 -1 -1 0 -0 -1 -1 -1 -0 -0 0 -0 -0 1 0 -0 -0 -1 nan
nan 2 1 -0 -0 -1 -0 0 0 0 -0 -0 -0 0 -0 -1 -1 -0 0 -0 -1 -1 -0 -0 -0 -0 nan
nan -0 2 1 0 -0 -0 -0 -0 -0 1 0 -1 -0 0 -0 -1 -1 0 0 -0 -1 -1 -0 -0 0 nan
nan -0 -0 0 0 0 0 0 0 0 -0 -0 0 0 -0 -1 -2 -0 0 -0 -0 -1 -0 -0 -0 -0 nan
nan 0 0 -0 -0 -0 0 0 -0 -1 -0 0 0 0 -0 -0 -1 -1 2 0 -1 -0 -1 -1 -0 0 nan
nan -0 0 0 -0 -0 0 1 0 -0 -1 -1 1 1 0 1 -0 -1 1 -0 -1 0 -0 -1 -0 0 nan
nan 0 -0 0 0 -0 -1 0 1 0 -0 -0 1 1 0 -0 -1 -0 -1 -0 1 1 0 -1 -1 0 nan
nan nan nan nan nan nan nan nan nan nan nan nan nan nan nan nan nan nan nan nan nan nan nan nan nan nan nan
Wind_Speed
19 20 20 22 20 19 20 18 16 16 16 16 16 17 19 20 21 21 21 21 20 20 21 21 20 20 20
24 21 19 18 20 23 18 19 16 17 17 16 16 16 17 18 20 21 23 24 23 22 22 22 22 23 22
26 21 20 16 16 19 20 20 16 16 19 16 16 18 21 21 22 23 23 23 23 23 24 25 26 26 26
25 24 21 17 18 18 17 16 21 18 18 17 14 19 21 22 24 25 25 26 26 26 25 26 26 26 27
23 23 22 17 15 16 22 23 22 19 17 14 14 17 17 19 21 24 29 30 28 28 28 27 27 28 28
24 25 24 20 19 20 23 22 20 15 15 18 18 20 19 18 21 22 23 24 24 26 26 29 28 28 29
28 28 28 24 22 24 26 24 23 23 23 26 20 18 14 13 15 17 19 19 19 20 22 27 26 27 27
28 28 25 25 27 30 29 30 29 27 22 24 20 16 16 14 15 17 18 18 19 21 22 21 21 21 22
25 25 26 28 29 30 33 33 34 28 19 20 22 23 18 17 17 17 16 16 16 18 20 22 22 23 23
26 27 27 25 25 30 31 33 32 28 22 19 22 18 11 13 11 10 13 16 17 19 22 24 27 29 28
29 29 28 26 27 27 28 30 32 35 33 29 29 27 24 21 21 20 19 20 23 21 20 23 25 28 30
29 30 30 30 28 27 30 30 32 33 30 30 29 28 25 26 29 25 21 22 22 23 21 21 22 23 24
31 33 32 28 26 28 30 32 33 31 32 33 33 32 32 33 34 32 30 27 25 22 18 18 22 21 22
31 33 32 30 29 28 31 33 37 36 33 34 34 32 33 35 33 33 30 25 24 21 22 23 22 19 19
32 31 32 32 29 29 31 32 37 37 35 35 33 31 32 33 35 34 31 28 27 26 22 23 22 20 18
30 32 33 34 36 36 32 34 36 37 36 35 33 29 28 30 31 32 31 29 26 23 20 21 23 21 18
32 35 34 34 34 32 32 34 36 36 36 35 35 33 29 30 31 20 20 20 19 20 19 20 22 21 19
Wind_Direction
280 284 289 292 299 288 290 281 294 280 278 284 282 263 257 258 260 263 264 262 260 260 261 261 262 264 266
289 290 285 285 286 297 300 297 282 281 289 281 275 269 265 263 263 263 265 260 257 258 259 259 261 263 265
289 291 288 293 282 285 293 299 295 291 289 276 267 262 261 263 264 263 264 267 265 262 262 261 260 261 263
290 294 292 289 277 292 297 295 293 293 295 289 277 268 263 263 264 262 262 264 266 266 263 263 262 261 262
286 292 291 289 285 281 280 293 295 304 298 293 267 274 276 263 263 263 261 261 263 265 266 266 264 264 264
277 279 284 283 285 287 290 298 305 308 292 293 294 291 285 277 268 261 261 266 262 259 262 264 265 263 265
272 273 278 280 279 279 282 290 291 294 291 296 299 294 288 285 286 278 269 267 259 255 257 265 267 265 268
283 284 277 276 271 273 277 280 282 288 290 287 297 290 290 288 282 279 276 264 262 263 267 269 271 271 271
287 283 278 271 270 271 271 278 284 287 285 284 285 291 292 288 276 274 274 271 267 270 271 274 271 271 269
285 286 286 281 272 264 267 266 269 277 284 260 277 288 305 294 270 261 268 266 272 272 271 274 276 275 273
291 288 284 279 279 278 271 268 266 267 271 274 275 277 278 276 279 276 275 275 274 276 277 276 276 275 274
289 291 294 290 277 269 271 277 273 271 272 267 269 273 275 277 280 283 279 279 281 286 283 282 280 279 276
285 288 290 298 293 278 273 265 273 271 266 264 265 270 270 270 275 279 282 283 283 285 279 282 290 287 280
284 286 289 291 289 283 274 272 266 273 266 261 264 263 263 266 269 273 275 274 277 280 286 286 288 290 282
284 283 280 279 276 276 270 270 266 266 273 268 265 261 259 262 262 264 266 268 273 282 283 283 284 287 284
270 278 279 281 278 275 271 269 267 263 265 265 263 257 258 258 255 258 262 266 269 272 275 276 282 286 284
276 280 279 281 274 272 272 267 262 261 261 264 256 252 245 246 252 258 263 263 256 259 263 266 276 284 288
Height
1438 1436 1434 1432 1430 1428 1425 1423 1422 1420 1419 1417 1417 1417 1417 1418 1419 1419 1420 1420 1421 1422 1422 1423 1423 1424 1425
1432 1430 1429 1428 1426 1423 1421 1418 1416 1415 1413 1413 1413 1413 1413 1413 1414 1414 1415 1414 1416 1417 1417 1418 1419 1419 1420
1426 1426 1424 1423 1422 1419 1417 1415 1412 1411 1408 1408 1408 1408 1408 1409 1409 1409 1409 1410 1410 1411 1412 1413 1413 1414 1415
1423 1420 1419 1418 1417 1415 1413 1411 1408 1407 1405 1403 1403 1402 1402 1403 1404 1404 1404 1403 1404 1405 1405 1406 1407 1407 1408
1419 1417 1416 1415 1414 1412 1409 1406 1403 1402 1400 1399 1398 1397 1396 1397 1397 1397 1396 1396 1397 1398 1398 1399 1400 1401 1401
1415 1413 1411 1412 1411 1408 1405 1402 1398 1398 1396 1394 1394 1393 1391 1390 1390 1390 1389 1389 1389 1390 1391 1392 1393 1394 1395
1406 1405 1406 1406 1405 1403 1400 1398 1395 1394 1392 1388 1389 1387 1387 1385 1384 1384 1383 1383 1384 1384 1385 1385 1386 1387 1388
1398 1398 1397 1399 1398 1397 1395 1393 1390 1389 1389 1383 1383 1382 1382 1381 1380 1379 1378 1378 1378 1378 1378 1378 1380 1381 1381
1392 1390 1390 1389 1390 1389 1387 1387 1384 1383 1383 1381 1378 1377 1377 1376 1374 1373 1372 1372 1373 1373 1373 1373 1374 1374 1374
1386 1382 1381 1381 1381 1380 1380 1379 1379 1376 1376 1377 1375 1375 1372 1369 1369 1369 1369 1368 1368 1368 1368 1367 1367 1366 1366
1377 1374 1373 1373 1372 1372 1372 1372 1371 1368 1370 1371 1368 1369 1370 1366 1365 1365 1364 1363 1362 1361 1361 1360 1360 1359 1358
1370 1367 1365 1363 1364 1365 1364 1363 1362 1362 1364 1363 1360 1361 1361 1360 1357 1358 1358 1357 1355 1355 1353 1353 1352 1352 1351
1361 1358 1358 1356 1355 1356 1356 1354 1354 1353 1353 1354 1353 1354 1353 1351 1349 1349 1350 1349 1348 1348 1347 1346 1345 1345 1344
1353 1351 1350 1348 1346 1346 1346 1346 1344 1343 1345 1344 1345 1346 1344 1343 1343 1342 1343 1342 1341 1341 1341 1340 1339 1338 1338
1345 1344 1342 1341 1338 1338 1336 1336 1334 1333 1333 1334 1335 1336 1336 1336 1334 1334 1334 1334 1334 1334 1334 1333 1332 1332 1331
1337 1335 1333 1332 1330 1329 1327 1326 1325 1324 1324 1325 1326 1327 1327 1326 1326 1326 1327 1327 1328 1328 1328 1326 1326 1326 1325
1328 1326 1324 1322 1321 1319 1318 1316 1315 1315 1315 1317 1317 1318 1319 1317 1319 1321 1320 1320 1321 1321 1322 1322 1321 1321 1319